www.pogodaiklimat.ru

Погода и климат >> Архив погоды >> Индонезия >> Паданг


ПОГОДА в Паданге

  • Прогноз погоды в Паданге
  • Монитор погоды в Паданге

АРХИВ ПОГОДЫ в Паданге

Время (UTC), дата Ветер
(напр.,м/с)
 
Видим.   Явления Облачность Т
(С)
Тd
(С)
f
(%)
Тe
(С)
Тes
(С)
Комфортность P
(гПа)
Po
(гПа)
Тmin
(С)
Tmax
(С)
R
(мм)
R24
(мм)
S
(см)
03 18.06 штиль 0 8000 м слаб. дождь 10/5 540 м
[Sc Ac As Cs]
+26.2 +25.1 94 +38 +42 очень
душно
1012.0 1011.2 0.8
06 18.06 З 3 10 км {дождь} 9/3 600 м
[Sc As op Cs]
+29.4 +25.7 81 +44 +50 опасность
перегрева
1009.3 1008.6 0.0
09 18.06 штиль 0 10 км слаб. дождь 9/3 600 м
[Sc As op Cs]
+28.7 +26.0 85 +43 +46 опасность
перегрева
1008.0 1007.3 0.0
12 18.06 штиль 0 10 км {дождь} 9/3 600 м
[Sc As op Cs]
+27.4 +26.2 93 +41 +41 опасность
перегрева
1008.7 1008.0 +30.7 0.0
15 18.06 штиль 0 10 км 6/1 600 м
[Sc Ac trans Ci fib]
+25.9 +25.2 96 +37 +37 очень
душно
1010.7 1010.0
18 18.06 штиль 0 10 км 6/1 600 м
[Sc Ac trans Ci fib]
+24.8 +24.0 95 +34 +34 очень
душно
1009.9 1009.2
21 18.06 штиль 0 10 км 9/5 600 м
[Sc As op Cs]
+24.4 +23.8 96 +33 +33 очень
душно
1009.3 1008.6
00 19.06 штиль 0 10 км 6/1 600 м
[Cu med, cong Ac trans Ci fib]
+24.5 +24.1 98 +34 +34 очень
душно
1009.9 1009.2 +24.4 0.8
03 19.06 З 4 10 км 9/5 540 м
[Cb cap Ac As Ci fib]
+28.9 +25.0 80 +42 +44 опасность
перегрева
1011.5 1010.7
06 19.06 ЮЗ 4 10 км 9/1 600 м
[Cu Sc As trans Cs]
+29.5 +25.9 81 +44 +51 опасность
перегрева
1009.1 1008.4
09 19.06 Ю 2 10 км 9/1 600 м
[Cu Sc Ac As Cs]
+29.4 +25.4 79 +43 +46 опасность
перегрева
1007.2 1006.5
12 19.06 штиль 0 10 км 10/1 600 м
[Sc As trans Cs]
+27.9 +25.9 89 +42 +42 опасность
перегрева
1008.4 1007.7 +30.2
15 19.06 штиль 0 10 км 9/3 600 м
[Sc As op Cs]
+26.7 +25.9 95 +40 +40 очень
душно
1010.1 1009.4
18 19.06 штиль 0 10 км 9/3 600 м
[Sc As op Cs]
+25.8 +25.3 97 +37 +37 очень
душно
1010.1 1009.3
21 19.06 штиль 0 10 км 8/3 600 м
[Sc As op Ci fib]
+24.9 +24.5 98 +35 +35 очень
душно
1009.2 1008.5
00 20.06 штиль 0 10 км 8/1 600 м
[Sc Ac As Ci fib]
+24.6 +24.2 98 +34 +34 очень
душно
1009.1 1008.4 +24.5
03 20.06 С 2 10 км 8/1 600 м
[Cb calv Ac trans Ci fib]
+29.2 +27.2 89 +46 +54 опасность
перегрева
1010.7 1010.0
06 20.06 ЮЗ 3 10 км 8/1 600 м
[Cu med, cong Ac trans Cc]
+31.0 +25.2 71 +45 +53 опасность
перегрева
1008.7 1008.0
09 20.06 Ю 3 10 км 9/6 540 м
[Cb cap As op Cs]
+30.0 +25.6 77 +44 +45 опасность
перегрева
1007.5 1006.8
12 20.06 штиль 0 10 км 9/5 540 м
[Cb calv As op Cs]
+27.0 +25.2 90 +39 +39 очень
душно
1009.1 1008.4 +31.4
15 20.06 штиль 0 9000 м слаб. дождь 10/6 480 м
[Cb cap As op Cs]
+25.2 +24.7 97 +35 +35 очень
душно
1010.9 1010.2 13
18 20.06 штиль 0 10 км {дождь} 9/3 600 м
[Cu Sc As op Cs]
+25.6 +24.8 95 +36 +36 очень
душно
1010.2 1009.5 0.5
21 20.06 СЗ 6 2000 м дождь 9/5
[Cb calv As op Cs]
+25.0 +24.3 96 +35 +35 очень
душно
1009.8 1009.1
00 21.06 штиль 0 10 км {дождь} 10/3 600 м
[Cu Sc As op Cs]
+24.5 +24.1 98 +34 +34 очень
душно
1010.4 1009.7 +24.4 22
03 21.06 штиль 0 10 км 9/3 600 м
[Cu Sc As op Cs]
+28.0 +25.0 84 +40 +47 очень
душно
1010.7 1010.1
06 21.06 ЮЗ 3 10 км 10/3 600 м
[Cu Sc Ac As Cs]
+28.6 +25.4 83 +42 +48 опасность
перегрева
1009.4 1008.8
09 21.06 З 5 9000 м слаб. дождь 10/6 570 м
[Sc As op Cs]
+27.7 +25.4 87 +40 +41 очень
душно
1008.4 1007.8 0.8
12 21.06 штиль 0 7000 м слаб. дождь 10/6 570 м
[Sc As op Cs]
+24.7 +23.9 95 +34 +34 очень
душно
1009.3 1008.7 +29.4 5
15 21.06 штиль 0 4000 м слаб. дождь 10/6 570 м
[Sc As op Cs]
+24.6 +24.3 98 +34 +34 очень
душно
1011.2 1010.6 3
18 21.06 В 2 10 км {дождь} 9/4 600 м
[Sc As op Cs]
+24.6 +24.2 98 +34 +34 очень
душно
1010.4 1009.7 0.5
21 21.06 В 2 10 км {дождь} 9/4 600 м
[Sc As op Cs]
+24.2 +23.5 96 +33 +33 очень
душно
1009.2 1008.5 4
00 22.06 штиль 0 10 км 10/3 600 м
[Sc As op Cs]
+24.3 +23.6 96 +33 +33 очень
душно
1010.0 1009.3 +24.0 15
03 22.06 штиль 0 10 км 9/4 600 м
[Sc As op Cs]
+27.6 +24.3 82 +39 +44 очень
душно
1010.9 1010.2
06 22.06 С 2 7000 м слаб. дождь 10/5 570 м
[Sc Ac As Cs]
+26.7 +25.1 91 +38 +43 очень
душно
1010.6 1009.9 0.5
09 22.06 ЮВ 1 10 км {дождь} 10/6 600 м
[Sc As op Cs]
+27.3 +24.2 83 +38 +39 очень
душно
1008.0 1007.4 0.3
12 22.06 штиль 0 10 км {дождь} 10/5 600 м
[Sc As op Cs]
+26.3 +24.8 91 +37 +37 очень
душно
1009.1 1008.5 +28.4 0.3
15 22.06 штиль 0 10 км 9/3 600 м
[Sc As op Cs]
+24.8 +23.6 93 +34 +34 очень
душно
1010.2 1009.5
18 22.06 штиль 0 10 км 9/3 600 м
[Sc As op Cs]
+24.1 +23.4 96 +32 +32 очень
душно
1009.7 1009.0
21 22.06 штиль 0 10 км 9/3 600 м
[Sc As op Cs]
+24.3 +23.2 94 +33 +33 очень
душно
1008.9 1008.2
00 23.06 штиль 0 10 км 9/5 600 м
[Sc As op Cs]
+24.7 +23.0 90 +33 +33 очень
душно
1009.8 1009.1 +24.1 0.8
03 23.06 ЮЗ 3 6000 м слаб. дождь 10/6 540 м
[Sc As op Cs]
+26.2 +23.9 87 +36 +38 очень
душно
1012.0 1011.4 0.7
06 23.06 ЮВ 2 10 км {дождь} 8/3 600 м
[Cu med, cong Ac As Ci fib]
+29.8 +22.3 64 +39 +47 очень
душно
1009.8 1009.2 1
09 23.06 З 8 10 км 8/1 600 м
[Cu hum Ac trans Ci fib]
+30.3 +24.8 72 +43 +44 опасность
перегрева
1008.2 1007.6
12 23.06 штиль 0 10 км 8/1 600 м
[Sc Ac trans Ci fib]
+27.5 +25.5 89 +40 +40 очень
душно
1009.4 1008.8 +32.4
15 23.06 штиль 0 10 км 6/1 600 м
[Sc Ac trans Ci fib]
+25.9 +24.8 94 +37 +37 очень
душно
1010.6 1009.9
18 23.06 штиль 0 10 км 5/1 600 м
[Sc Ac trans Ci fib]
+24.2 +23.1 94 +32 +32 очень
душно
1010.4 1009.8
21 23.06 штиль 0 10 км 5/1 600 м
[Sc Ac trans Ci fib]
+22.9 +22.1 95 +31 +31 очень
душно
1009.7 1009.1
00 24.06 штиль 0 10 км 9/1 600 м
[Cu med, cong Ac trans Ci fib]
+22.5 +21.8 96 +30 +30 очень
душно
1011.1 1010.5 +22.4 2
03 24.06 СВ 4 10 км 8/3 600 м
[Cu med, cong Ac trans Ci fib]
+27.1 +24.0 83 +37 +41 очень
душно
1012.3 1011.7
06 24.06 СВ 3 10 км 8/3 600 м
[Cu med, cong Ac trans Ci fib]
+31.8 +25.9 71 +47 +54 опасность
перегрева
1009.7 1009.1
09 24.06 ЮЗ 4 10 км 9/1 600 м
[Cu hum Ac trans Ci fib]
+31.4 +24.2 66 +44 +46 опасность
перегрева
1008.3 1007.6
12 24.06 штиль 0 10 км 8/1 600 м
[Cu Sc Ac trans Ci fib]
+28.4 +25.6 85 +42 +42 опасность
перегрева
1009.6 1008.9 +32.6
15 24.06 штиль 0 10 км 8/3 600 м
[Sc Ac trans Ci fib]
+25.8 +24.6 93 +36 +36 очень
душно
1010.9 1010.2
18 24.06 штиль 0 50 км ?/? +24.6 +23.3 92 +33 +33 очень
душно
1010.6 1009.9
21 24.06 штиль 0 10 км 8/4 600 м
[Sc As op Ci fib]
+24.3 +23.6 96 +33 +33 очень
душно
1010.2 1009.6
00 25.06 штиль 0 10 км 5/1 600 м
[Cu med, cong Ac trans Ci fib]
+23.5 +22.4 94 +31 +31 очень
душно
1011.4 1010.7 +23.5

 

Местоположение метеостанции Паданг (Индонезия): широта -0.88 долгота 100.35 высота над уровнем моря 3 м.

В архиве по умолчанию представлена погода в Паданге за последнюю неделю. Архивные данные за месяц целиком и за предыдущие месяцы, начиная с января 2011 года, Вы можете получить, выбрав интересующий диапазон дат из раскрывающегося списка и нажав кнопку "Ввод!".


*Определитесь, кто Вы:
робот инопланетянин человек

Внимание! Время в таблицах - всемирное. Для получения местного времени необходимо прибавить поправку, которая равна 7 ч.

Смотрите также архив погоды в соседних городах и на ближайших метеорологических станциях:

Погода в Пеканбару (Индонезия) (194 км)
Погода в Аэропорту Япура (Индонезия) (226 км)
Погода на Керинчи (Индонезия) (238 км)
Погода в Сиболге (Индонезия) (316 км)
Погода в Джамби (Индонезия) (376 км)
Погода в Бенкулу (Индонезия) (400 км)
Погода в Гунунгситоли (Индонезия) (402 км)
Погода в Малакке (Малайзия) (409 км)
Погода в Куала-Лумпур аэропорту (Малайзия) (428 км)
Погода в Аэропорту Сеная (Малайзия) (463 км)

Пояснения к столбцам:

Ветер - указаны скорость ветра в м/с - средняя за 10 мин, порывы в срок и между сроками (в фигурных скобках) и направление, откуда дует ветер: С - северный, СВ - северо-восточный, В - восточный, ЮВ - юго-восточный, Ю - южный, ЮЗ - юго-западный, З - западный, СЗ - северо-западный.
Видимость - горизонтальная дальность видимости в метрах или километрах. При видимости от 1 до 10 км при отсутствии осадков обычно наблюдается дымка, при ухудшении видимости до 1 км и менее - туман. В сухую погоду видимость может ухудшаться дымом, пылью или мглою.
Явления - указаны атмосферные явления, наблюдавшиеся в срок или в последний час перед сроком; фигурными скобками обозначены явления, наблюдавшиеся между сроками (за 1-3 часа до срока); квадратными скобками обозначены град или гололедные отложения с указанием их диаметра в мм.
Облачность - указаны через наклонную черту общая и нижняя облачность в баллах и высота нижней границы облаков в метрах; квадратными скобками обозначены формы облаков: Ci - перистые, Cs - перисто-слоистые, Cc - перисто-кучевые, Ac - высококучевые, As - высокослоистые, Sc - слоисто-кучевые, Ns - слоисто-дождевые, Cu - кучевые, Cb - кучево-дождевые. Подробнее классификацию облаков см. в Атласе облаков (PDF).
T - Температура воздуха - температура, измеренная на высоте 2 м над землей.
Td - Температура точки росы - температура, при понижении до которой содержащийся в воздухе водяной пар достигнет насыщения.
f - Относительная влажность воздуха - влажноcть воздуха, измеренная на высоте 2 м над землей.
Te - Эффективная температура - температура, которую ощущает одетый по сезону человек в тени. Характеристика душности погоды. При расчете учитывается влияние влажности воздуха и скорости ветра на теплоощущения человека.
Tes - Эффективная температура на солнце - температура, которую ощущает человек, с поправкой на солнечный нагрев. Характеристика знойности погоды. Зависит от высоты солнца над горизонтом, облачности и скорости ветра. Ночью, в пасмурную погоду, а также при ветре 12 м/с и более поправка равна нулю.
P - Атмосферное давление - приведенное к уровню моря атмосферное давление.
Po - Атмосферное давление - измеренное на уровне метеостанции атмосферное давление.
Tmin - Минимальная температура - минимум температуры воздуха на высоте 2 м над землей.
Tmax - Максимальная температура - максимум температуры воздуха на высоте 2 м над землей.
R - Количество осадков - Количество выпавших осадков за период времени, мм. При наведении курсора мыши на число - период времени, за который выпало указанное количество осадков.
R24 - Количество осадков - Количество выпавших осадков за 24 часа, мм.
S - Снежный покров - Высота снежного покрова, см. При наведении курсора мыши на число - состояние снежного покрова и степень покрытия местности в баллах.